Florence, SC

7:06 PM EDT on September 25, 2017 (GMT -0400)
Florence Regional

Weather History for KFLO - September, 2013

Change the Weather History Date:

Monday, September 16, 2013

  Actual Average Record
Temperature  
Mean Temperature 79 °F 74 °F  
Max Temperature 89 °F 84 °F 97 °F (1956)
Min Temperature 68 °F 64 °F 52 °F (1961)
Degree Days  
Heating Degree Days 0 0  
Month to date heating degree days 0 0  
Since 1 July heating degree days 0 0  
Cooling Degree Days 14 10  
Month to date cooling degree days 231 183  
Year to date cooling degree days 1858 1853  
Growing Degree Days 28 (Base 50)    
Moisture  
Dew Point 70 °F    
Average Humidity 80    
Maximum Humidity 100    
Minimum Humidity 59    
Precipitation  
Precipitation 0.36 in 0.12 in 0.81 in (1977)
Month to date precipitation 0.44 2.06  
Year to date precipitation 46.90 32.54  
Sea Level Pressure  
Sea Level Pressure 30.10 in    
Wind  
Wind Speed 3 mph (NW)    
Max Wind Speed 28 mph    
Max Gust Speed 36 mph    
Visibility 7 miles    
Events Fog , Rain , Thunderstorm    
T = Trace of Precipitation, MM = Missing Value Source: NWS Daily Summary

Daily Weather History Graph

Daily Weather History Graph

Search for Another Location

Airport or City:

Trip Planner

Search our weather history database for the weather conditions in past years. The results will help you decide how hot, cold, wet, or windy it might be!

Date:

Astronomy

Sep. 16, 2013 Rise Set
Actual Time 7:02 AM EDT 7:23 PM EDT
Civil Twilight 6:37 AM EDT 7:48 PM EDT
Nautical Twilight 6:08 AM EDT 8:18 PM EDT
Astronomical Twilight 5:38 AM EDT 8:47 PM EDT
Moon 5:26 PM EDT (9/16) 3:53 AM EDT (9/16)
Length of Visible Light 13h 11m
Length of Day
12h 20m
Waxing Gibbous, 90% of the Moon is Illuminated
Sep 16
Waxing Gibbous
Sep 19
Full
Sep 26
Last Quarter
Oct 4
New
Oct 11
First Quarter

Hourly Weather History & Observations

Time (EDT) Temp. Heat Index Dew Point Humidity Pressure Visibility Wind Dir Wind Speed Gust Speed Precip Events Conditions
12:53 AM 71.1 °F - 69.1 °F 93% 30.13 in 10.0 mi Calm Calm - N/A   Clear
1:29 AM 69.8 °F - 66.2 °F 88% 30.14 in 1.5 mi Calm Calm - N/A   Clear
1:40 AM 68.0 °F - 66.2 °F 94% 30.13 in 0.5 mi Calm Calm - N/A Fog Fog
1:53 AM 70.0 °F - 69.1 °F 97% 30.13 in 1.2 mi Calm Calm - N/A   Clear
1:56 AM 69.8 °F - 69.8 °F 100% 30.13 in 3.0 mi Calm Calm - N/A   Clear
2:04 AM 69.8 °F - 68.0 °F 94% 30.13 in 1.8 mi Calm Calm - N/A   Clear
2:18 AM 69.8 °F - 69.8 °F 100% 30.13 in 4.0 mi Calm Calm - N/A   Clear
2:53 AM 70.0 °F - 68.0 °F 93% 30.12 in 6.0 mi Calm Calm - N/A   Scattered Clouds
3:53 AM 70.0 °F - 69.1 °F 97% 30.11 in 7.0 mi Calm Calm - N/A   Scattered Clouds
4:53 AM 70.0 °F - 68.0 °F 93% 30.10 in 9.0 mi Calm Calm - N/A   Overcast
5:53 AM 72.0 °F - 69.1 °F 91% 30.10 in 9.0 mi Calm Calm - N/A   Overcast
6:53 AM 71.1 °F - 68.0 °F 90% 30.12 in 8.0 mi Calm Calm - N/A   Mostly Cloudy
7:49 AM 71.6 °F - 69.8 °F 94% 30.13 in 7.0 mi Calm Calm - N/A   Overcast
7:53 AM 72.0 °F - 69.1 °F 91% 30.12 in 7.0 mi Calm Calm - N/A   Overcast
8:00 AM 71.6 °F - 69.8 °F 94% 30.13 in 7.0 mi Calm Calm - N/A   Overcast
8:53 AM 73.9 °F - 71.1 °F 91% 30.12 in 8.0 mi Calm Calm - N/A   Clear
9:53 AM 78.1 °F - 69.1 °F 74% 30.13 in 10.0 mi WSW 5.8 mph - N/A   Clear
10:53 AM 82.9 °F 87.0 °F 70.0 °F 65% 30.13 in 10.0 mi WNW 5.8 mph - N/A   Clear
11:22 AM 82.4 °F 87.2 °F 71.6 °F 70% 30.13 in 10.0 mi WSW 9.2 mph - N/A   Mostly Cloudy
11:50 AM 84.2 °F 89.6 °F 71.6 °F 66% 30.13 in 10.0 mi WNW 3.5 mph - N/A   Mostly Cloudy
11:53 AM 84.9 °F 90.7 °F 72.0 °F 65% 30.12 in 10.0 mi NNW 4.6 mph - N/A   Mostly Cloudy
12:36 PM 84.2 °F 89.6 °F 71.6 °F 66% 30.11 in 10.0 mi WNW 5.8 mph - N/A   Mostly Cloudy
12:53 PM 87.1 °F 92.8 °F 71.1 °F 59% 30.10 in 10.0 mi Variable 5.8 mph - N/A   Partly Cloudy
1:53 PM 88.0 °F 93.8 °F 71.1 °F 57% 30.07 in 10.0 mi West 4.6 mph - N/A   Mostly Cloudy
2:53 PM 88.0 °F 93.8 °F 71.1 °F 57% 30.04 in 10.0 mi NNE 4.6 mph - N/A   Mostly Cloudy
3:12 PM 80.6 °F 83.9 °F 69.8 °F 70% 30.05 in 1.5 mi North 26.5 mph 35.7 mph 0.10 in Rain Light Rain
3:24 PM 73.4 °F - 69.8 °F 88% 30.05 in 0.8 mi NNW 13.8 mph 25.3 mph 0.34 in Rain , Thunderstorm Heavy Thunderstorms and Rain
3:31 PM 77.0 °F - 69.8 °F 78% 30.04 in 2.0 mi North 5.8 mph - 0.36 in Rain , Thunderstorm Light Thunderstorms and Rain
3:36 PM 78.8 °F - 69.8 °F 74% 30.05 in 5.0 mi ENE 6.9 mph - 0.36 in Rain Light Rain
3:53 PM 75.9 °F - 71.1 °F 85% 30.04 in 10.0 mi East 5.8 mph - 0.36 in   Overcast
4:53 PM 84.9 °F 90.7 °F 72.0 °F 65% 30.04 in 10.0 mi Calm Calm - N/A   Clear
5:53 PM 84.9 °F 91.4 °F 73.0 °F 67% 30.03 in 10.0 mi SSE 5.8 mph - N/A   Clear
6:53 PM 81.0 °F 85.2 °F 72.0 °F 74% 30.05 in 10.0 mi SSW 4.6 mph - N/A   Partly Cloudy
7:53 PM 79.0 °F - 72.0 °F 79% 30.06 in 10.0 mi Calm Calm - 0.00 in Rain Light Rain
8:53 PM 77.0 °F - 73.0 °F 88% 30.09 in 10.0 mi SSW 4.6 mph - 0.00 in   Mostly Cloudy
9:53 PM 75.0 °F - 70.0 °F 84% 30.09 in 10.0 mi Calm Calm - N/A   Partly Cloudy
10:53 PM 75.0 °F - 71.1 °F 87% 30.09 in 8.0 mi North 4.6 mph - N/A   Clear
11:53 PM 75.0 °F - 64.9 °F 71% 30.11 in 10.0 mi NE 12.7 mph - N/A   Mostly Cloudy